DELTA 1 DEB, 12533

Orbit data source: Space-Track

DELTA 1 DEB, 12533 is space debris in SSO originally from a launch on Thu, 29 Jul 1976 UTC launched from the Air Force Western Test Range (AFWTR). Debris objects in space refer to the collection of defunct objects orbiting the Earth. Examples of debris include non-operational satellites, rocket bodies, and fragments generated from explosions, collisions, or faulty payload assembly.

Loading next visibility...
Identifier
12533, 1976-077DN
Orbit
SSO
Country
Flag of USUS
Related business
Manufacturer
Unknown
Mission
Spacecraft
Bus & Motor
Unknown
Mass
Unknown
Launch date (UTC)
1976-07-29 (50 years ago)
Launch vehicle
Unknown
Launch site
Air Force Western Test Range (AFWTR)
Object type
Payload
Rocket body
Debris
Shape & HBR
Unknown shape, 0.2 m
Radar Cross Section
Small (<0.1 m²)

Expand to show TLE details & history
Last TLE update: 11 hours ago

TLE from 11 hours ago
0 DELTA 1 DEB
1 12533U 76077DN  26104.40984752  .00000207  00000-0  16926-2 0  9998
2 12533 101.7444  71.9485 0062030  43.8753 107.5243 12.47408680148333
Epoch: 2026-04-14T09:50Z
TLE epoch observation values (Epoch: 2026-04-14T09:50:10.825Z)
Latitude
27.3287°
Longitude
-92.04585°
Altitude
1,493.344 km
Speed
7.113 km/s
True Right ascension
17h 12m 20s
True Declination
27° 12' 06"
Sunlit
Object was in daylight at epoch
Visualization orbit readout
Latitude
Unknown
Longitude
Unknown
Altitude
Unknown
Speed
Unknown
Apparent Right ascension
Unknown
Apparent Declination
Unknown
Sunlit
N/A
Visualization observer readout
Local Sidereal Time
03:36:30
Azimuth
Unknown
Elevation
Unknown
Doppler factor
Unknown
Orbital elements
Apogee altitude
1,521.602 km
Perigee altitude
1,424.202 km
Semi-major axis
7,851.039 km
Eccentricity
0.0062
Inclination
101.7444°
RAAN
71.9485°
Arg. of periapsis
43.8753°
True anomaly
108.20053°
Mean anomaly
107.5243°
Eccentric anomaly
107.86257°
Mean motion
3.11998 °/min
Orbital period
115.39 mins
BSTAR
0.0016926
Loading maneuver chart data...
Computing Atmospheric mass density...
Loading historical data...
Loading historical data...
Loading historical data...
Loading historical data...
Loading historical data...
Loading historical data...
Loading historical data...

Documentation

Showing up to 5 results
|